Wind_Speed
12 11 10 9 9 9 8 8 7 7 7 6 6 6 6 6 6 7 7 7 7 7 8 8 8 9 9 9 10 10 11 12 12 12 12 12 12 13 13 13 13 13 14
14 13 12 11 10 10 10 9 9 8 8 8 8 7 7 7 8 8 8 8 9 9 9 9 10 10 10 11 11 12 12 13 14 14 14 14 14 14 14 15 15 15 15
16 15 14 13 13 12 11 11 10 10 10 10 9 9 9 9 9 10 10 10 10 10 10 10 11 12 12 12 12 13 13 13 14 15 15 16 16 16 16 16 16 17 16
18 17 16 15 14 13 13 12 12 12 11 11 11 11 11 11 11 11 11 11 11 11 11 12 12 13 13 13 14 14 14 14 15 15 16 16 17 17 18 18 18 18 18
20 19 17 16 16 15 14 13 13 13 13 13 13 13 13 13 13 13 12 12 12 12 12 13 13 13 14 14 15 15 16 16 16 16 17 17 18 18 19 19 19 19 19
22 21 19 18 17 16 15 15 14 14 14 14 14 14 14 14 14 13 13 13 13 13 14 14 14 15 15 16 16 17 17 17 17 18 18 19 19 20 20 21 21 20 20
24 22 21 20 19 18 17 16 15 15 16 15 15 15 15 15 14 14 14 14 14 14 15 15 15 16 16 17 17 17 18 18 18 19 19 20 21 22 22 22 22 22 22
25 24 23 22 21 20 18 18 17 16 16 16 16 16 15 15 15 15 15 15 15 15 16 16 16 16 17 17 17 17 18 18 19 20 20 21 22 23 23 23 24 24 24
27 25 24 23 22 21 20 19 18 17 17 17 17 17 17 16 16 16 16 17 17 17 17 17 17 17 17 17 18 19 19 19 20 21 22 23 23 24 24 24 25 25 25
28 27 25 24 23 22 22 21 20 19 18 18 18 18 18 18 18 18 18 18 18 18 18 18 18 18 18 19 20 20 20 21 22 22 23 24 24 25 25 25 26 26 26
29 28 27 26 25 24 23 22 21 20 20 20 20 19 19 19 19 19 20 20 20 20 20 20 20 20 20 20 21 21 22 22 23 24 24 25 25 25 25 26 26 27 27
31 29 28 27 26 25 24 23 23 22 22 21 21 21 21 21 21 21 21 21 22 22 22 22 21 21 21 22 22 23 23 23 24 25 25 25 25 25 26 26 26 27 27
31 30 29 28 28 26 25 25 24 24 23 23 23 22 22 22 23 23 23 23 23 24 24 23 23 23 24 24 24 24 24 24 25 25 25 24 25 25 25 26 26 26 27
32 31 30 29 28 27 26 25 25 25 25 24 24 24 24 24 24 24 25 25 25 25 25 25 25 25 25 25 25 25 25 25 25 25 24 25 25 25 25 25 25 26 27
33 32 31 30 29 28 27 27 26 26 26 25 25 25 25 25 25 26 26 26 26 27 26 26 26 26 26 27 26 26 26 26 25 25 26 26 26 26 26 26 26 27 27
33 32 32 31 30 29 29 28 27 27 27 27 27 27 27 27 27 27 28 28 28 28 29 28 28 27 28 28 28 27 27 26 26 27 27 27 27 27 27 27 28 28 29
33 32 32 31 30 30 29 29 28 28 28 28 28 28 28 29 29 29 29 29 29 29 29 29 29 29 29 28 28 28 28 27 28 28 28 28 28 28 28 29 29 30 31
34 33 32 31 31 30 30 30 29 29 29 30 30 30 30 30 30 30 30 31 30 30 31 30 30 30 29 29 29 29 29 29 29 29 29 29 28 29 29 30 31 32 32
34 34 33 32 31 31 31 31 30 30 30 30 30 30 31 32 32 31 32 31 31 31 31 31 31 31 30 30 30 30 30 30 30 30 29 29 30 31 32 33 33 33 34
33 33 33 32 32 31 31 32 31 31 32 32 32 31 32 33 33 33 33 32 33 33 33 32 32 32 32 31 31 31 31 31 31 31 31 32 32 33 34 35 35 35 36
32 32 32 33 33 33 32 32 32 33 34 33 33 33 33 34 35 35 34 34 34 33 33 33 33 33 33 32 33 33 33 33 33 33 34 35 35 36 37 37 37 37 38
31 31 31 31 32 33 34 33 33 34 35 35 36 36 35 35 35 35 35 35 35 35 34 34 34 34 34 35 35 35 35 35 35 35 36 37 38 38 39 39 39 39 40
31 31 31 32 31 33 34 34 34 34 35 35 35 35 36 37 36 35 35 35 36 36 35 35 35 36 36 37 37 37 37 36 36 36 37 38 39 40 40 40 41 41 42
30 31 31 32 33 33 34 35 35 35 36 36 37 37 37 37 37 36 35 35 35 36 36 36 36 36 37 38 38 38 38 39 39 38 39 40 41 41 41 42 42 43 44
30 31 32 32 33 34 35 36 36 35 36 36 37 37 37 37 36 37 37 36 36 36 37 37 37 37 38 38 38 39 40 41 41 42 41 42 42 43 44 44 45 46 47
29 30 32 33 33 34 35 36 37 37 37 37 38 38 38 38 38 38 38 38 38 39 39 40 39 39 39 40 40 41 42 43 44 44 44 45 45 46 47 47 48 48 48
Wind_Direction
242 244 244 244 246 250 254 255 255 254 258 262 264 269 273 278 284 289 292 292 293 295 297 298 298 297 295 293 291 289 287 286 285 284 283 283 283 283 282 281 281 281 281
243 244 245 245 246 250 253 255 256 258 259 261 265 267 271 276 282 288 291 291 292 293 295 297 297 298 296 294 292 290 288 286 285 284 283 282 282 282 283 282 282 282 281
243 244 245 246 248 250 253 255 258 260 262 263 264 267 271 276 282 286 289 291 292 293 294 295 296 296 295 293 292 291 289 287 285 284 283 283 282 282 282 282 281 281 281
243 244 245 246 248 249 251 254 259 261 263 264 267 269 272 277 281 284 288 290 292 293 294 295 295 295 294 293 291 290 290 288 286 285 284 284 283 283 283 283 282 281 280
241 243 244 246 249 250 251 254 258 261 263 265 268 270 273 277 281 283 286 289 291 293 295 295 296 296 295 294 292 290 289 288 287 285 284 284 283 283 283 283 283 283 281
238 240 242 246 249 251 251 254 256 258 261 264 268 271 273 276 280 282 285 288 291 292 293 294 296 297 296 294 292 290 289 288 287 286 285 284 284 283 283 283 283 283 282
236 239 242 244 247 250 252 254 256 257 261 264 268 272 274 275 277 281 284 286 290 292 292 293 295 296 296 295 294 292 290 289 289 288 287 286 285 284 284 283 282 282 281
236 238 240 242 246 249 251 254 256 258 261 264 268 271 273 273 274 278 282 286 288 291 292 292 294 296 297 295 295 294 293 290 290 290 289 288 287 286 285 284 283 283 282
236 237 239 241 244 248 250 253 255 257 259 263 267 270 271 272 274 278 282 285 287 289 291 292 294 294 295 296 296 294 292 292 293 293 292 290 289 287 286 285 285 284 283
234 236 238 240 243 246 250 252 254 256 258 262 265 268 270 272 274 278 281 285 286 288 289 291 292 291 292 294 295 294 293 293 294 294 294 292 290 288 286 285 285 284 284
234 236 237 239 242 245 249 252 254 256 258 261 263 266 269 271 273 277 280 283 284 286 287 288 289 289 290 292 294 295 295 295 294 294 294 293 291 290 289 287 286 284 283
233 234 236 238 241 245 248 251 254 257 259 261 263 266 268 270 272 275 278 281 283 284 286 287 288 288 289 291 293 295 296 295 294 294 294 293 292 291 290 289 286 284 282
234 234 236 238 241 244 248 251 255 258 260 261 264 266 268 270 273 275 277 280 282 283 284 284 286 286 288 290 292 293 294 295 295 295 294 293 293 292 291 290 288 286 284
232 234 237 239 242 245 248 251 255 258 259 261 264 266 268 270 273 275 276 279 281 282 282 282 284 286 288 290 291 292 293 293 294 294 294 294 294 293 292 291 290 288 286
232 235 238 241 243 245 249 251 254 257 259 262 265 267 269 271 274 276 277 279 281 281 281 282 284 285 287 289 289 290 291 292 292 293 293 294 293 293 292 292 291 290 288
232 235 238 241 243 246 249 251 254 258 260 262 265 267 270 272 274 276 277 279 280 281 280 281 282 283 285 286 287 289 290 291 292 293 293 293 292 291 291 291 291 290 289
232 235 238 241 243 247 249 251 254 257 259 262 264 267 270 272 274 276 277 279 281 281 281 281 281 283 284 285 286 288 289 290 292 292 293 293 292 292 292 293 292 291 290
232 235 238 241 243 246 249 251 255 258 261 262 264 266 270 272 274 276 277 280 280 280 280 280 280 281 283 284 286 287 288 289 290 291 292 293 292 292 292 293 293 292 290
232 236 239 242 245 247 249 252 255 258 261 263 265 267 269 271 273 276 279 280 280 279 280 279 279 281 282 283 285 286 287 288 289 289 290 291 292 293 293 293 293 292 290
233 237 240 243 246 248 251 253 256 258 261 264 266 269 271 271 273 276 279 278 279 279 279 279 279 281 282 282 283 285 286 287 288 289 290 291 292 293 293 293 292 291 290
236 239 241 243 246 249 252 254 256 259 261 264 267 270 272 273 274 275 276 277 277 278 279 279 279 281 281 281 283 284 285 286 287 289 290 290 291 292 293 293 291 290 289
239 242 244 245 248 250 253 256 258 260 261 263 267 269 271 273 274 277 277 277 278 278 278 278 279 280 280 281 282 282 283 284 286 288 290 291 291 292 293 292 290 290 289
239 243 245 247 250 253 254 257 259 262 264 265 267 272 273 273 275 277 278 279 279 278 278 278 278 280 281 281 281 282 283 284 285 287 289 291 293 293 292 291 292 292 291
240 244 247 249 252 255 257 259 261 262 265 267 270 273 275 275 275 277 278 278 279 279 278 278 279 280 281 281 282 282 283 284 286 287 289 291 292 293 293 292 292 292 292
244 247 251 252 255 257 259 261 262 264 267 268 271 273 275 276 276 276 276 277 278 278 279 280 280 281 281 282 282 283 283 285 286 287 289 291 292 292 292 292 292 292 292
247 248 251 255 257 259 261 263 265 267 268 270 272 274 275 277 277 277 277 278 279 281 281 282 281 281 282 282 283 284 284 285 287 288 289 289 290 291 292 292 292 292 291
Height
5864 5865 5866 5866 5867 5867 5868 5868 5868 5868 5868 5868 5868 5868 5868 5868 5868 5868 5868 5868 5867 5867 5867 5866 5866 5866 5865 5865 5864 5864 5864 5864 5864 5864 5863 5863 5863 5863 5863 5863 5863 5863 5863
5862 5863 5864 5864 5865 5865 5866 5866 5867 5867 5867 5867 5867 5867 5867 5867 5867 5867 5867 5866 5866 5866 5865 5865 5864 5864 5864 5863 5863 5862 5862 5862 5862 5861 5861 5861 5861 5861 5861 5861 5861 5860 5860
5859 5860 5861 5862 5863 5863 5864 5864 5865 5865 5865 5865 5865 5865 5865 5865 5865 5865 5865 5865 5864 5864 5864 5863 5863 5862 5862 5861 5861 5860 5860 5859 5859 5859 5859 5858 5858 5858 5858 5858 5858 5858 5858
5856 5857 5858 5859 5860 5861 5862 5862 5863 5863 5863 5863 5863 5863 5863 5863 5863 5863 5863 5863 5862 5862 5862 5861 5861 5860 5859 5859 5858 5858 5857 5857 5856 5856 5856 5856 5855 5855 5855 5855 5855 5855 5854
5852 5854 5855 5856 5857 5858 5859 5860 5860 5861 5861 5861 5861 5861 5861 5861 5861 5861 5861 5861 5860 5860 5859 5859 5858 5858 5857 5856 5855 5855 5854 5854 5853 5853 5853 5852 5852 5852 5851 5851 5851 5851 5851
5848 5850 5851 5853 5854 5855 5856 5857 5857 5858 5858 5858 5859 5859 5859 5859 5859 5859 5858 5858 5858 5858 5857 5856 5856 5855 5854 5853 5852 5852 5851 5851 5850 5850 5849 5849 5849 5848 5848 5848 5847 5847 5847
5844 5846 5847 5849 5850 5852 5853 5854 5854 5855 5855 5855 5856 5856 5856 5856 5856 5856 5856 5856 5855 5855 5854 5854 5853 5852 5851 5850 5849 5848 5847 5847 5847 5846 5845 5845 5845 5844 5844 5843 5843 5843 5843
5839 5841 5843 5845 5847 5848 5849 5850 5851 5852 5852 5852 5853 5853 5853 5853 5853 5853 5853 5853 5852 5852 5851 5851 5850 5849 5848 5847 5846 5845 5844 5843 5843 5842 5841 5841 5840 5840 5839 5839 5838 5838 5838
5833 5836 5839 5841 5843 5844 5845 5847 5848 5848 5849 5849 5849 5850 5850 5850 5850 5850 5850 5850 5849 5849 5848 5847 5847 5846 5845 5844 5843 5842 5841 5840 5839 5838 5837 5836 5835 5835 5834 5834 5834 5833 5833
5828 5831 5834 5836 5838 5840 5841 5843 5844 5844 5845 5845 5846 5846 5847 5847 5847 5847 5847 5846 5846 5845 5845 5844 5843 5842 5841 5840 5839 5838 5837 5836 5835 5834 5832 5831 5830 5830 5829 5829 5828 5828 5828
5823 5826 5829 5831 5834 5836 5837 5839 5840 5840 5841 5842 5842 5843 5843 5843 5843 5843 5843 5843 5842 5842 5841 5840 5839 5839 5838 5836 5835 5834 5833 5832 5831 5829 5828 5827 5826 5825 5824 5823 5823 5822 5822
5817 5821 5824 5826 5829 5831 5832 5834 5835 5836 5837 5838 5838 5839 5839 5839 5839 5839 5839 5839 5838 5838 5837 5836 5835 5835 5833 5832 5831 5830 5829 5827 5826 5825 5823 5822 5821 5820 5819 5818 5817 5816 5816
5812 5816 5818 5821 5823 5826 5828 5829 5831 5832 5833 5833 5834 5834 5835 5835 5835 5835 5834 5834 5834 5833 5833 5832 5831 5830 5829 5828 5827 5825 5824 5823 5821 5820 5818 5817 5816 5814 5813 5812 5811 5810 5810
5806 5810 5813 5815 5818 5820 5822 5824 5826 5827 5828 5829 5829 5830 5830 5830 5830 5830 5830 5829 5829 5828 5828 5827 5826 5825 5824 5823 5822 5820 5819 5818 5816 5815 5813 5812 5811 5809 5808 5807 5806 5805 5804
5800 5804 5807 5810 5813 5815 5817 5819 5820 5821 5823 5823 5824 5825 5825 5825 5825 5825 5825 5824 5824 5823 5822 5822 5821 5820 5819 5818 5816 5815 5814 5812 5811 5810 5808 5807 5805 5804 5803 5802 5800 5799 5798
5793 5797 5801 5804 5807 5809 5811 5813 5814 5816 5817 5818 5819 5819 5819 5819 5819 5819 5819 5819 5818 5817 5817 5816 5815 5814 5813 5812 5811 5810 5808 5807 5805 5804 5803 5801 5799 5798 5797 5795 5794 5793 5791
5788 5792 5795 5799 5801 5803 5805 5807 5808 5810 5811 5812 5813 5813 5813 5813 5813 5813 5813 5812 5812 5811 5810 5810 5809 5808 5807 5806 5805 5804 5802 5801 5799 5798 5796 5795 5793 5792 5790 5789 5787 5786 5784
5782 5786 5789 5792 5795 5797 5799 5801 5802 5804 5805 5806 5806 5806 5807 5807 5807 5807 5806 5806 5805 5805 5804 5803 5803 5802 5801 5800 5799 5797 5796 5795 5793 5791 5790 5788 5787 5785 5784 5782 5780 5779 5777
5777 5780 5784 5786 5789 5791 5793 5794 5796 5798 5799 5799 5799 5800 5800 5800 5800 5800 5799 5799 5798 5798 5797 5797 5796 5795 5794 5793 5792 5791 5789 5788 5786 5785 5784 5782 5780 5778 5777 5775 5773 5771 5769
5771 5775 5778 5780 5782 5784 5786 5788 5789 5791 5791 5792 5793 5793 5793 5793 5793 5793 5792 5792 5791 5791 5790 5789 5789 5788 5787 5786 5785 5784 5782 5781 5780 5778 5777 5775 5773 5771 5769 5767 5765 5763 5761
5765 5769 5772 5774 5776 5778 5779 5781 5783 5784 5784 5785 5786 5786 5786 5786 5786 5785 5785 5785 5784 5783 5783 5782 5781 5781 5780 5779 5778 5777 5775 5774 5772 5771 5769 5767 5765 5763 5761 5759 5757 5754 5752
5760 5763 5766 5768 5770 5772 5773 5775 5776 5777 5777 5778 5779 5779 5779 5779 5778 5778 5777 5777 5776 5776 5775 5774 5773 5773 5772 5771 5770 5769 5768 5767 5765 5763 5761 5759 5757 5754 5752 5750 5747 5745 5742
5754 5757 5759 5762 5763 5765 5766 5768 5769 5770 5770 5771 5771 5771 5771 5771 5770 5770 5769 5769 5768 5767 5767 5766 5765 5764 5763 5762 5761 5760 5759 5758 5757 5755 5753 5750 5747 5745 5743 5740 5737 5735 5732
5748 5751 5753 5756 5757 5758 5759 5761 5762 5762 5763 5763 5764 5764 5763 5762 5762 5761 5761 5760 5759 5759 5758 5757 5756 5755 5754 5753 5752 5750 5749 5748 5747 5746 5744 5741 5738 5735 5732 5730 5727 5724 5721
5743 5745 5747 5749 5750 5751 5752 5753 5754 5754 5755 5755 5755 5756 5755 5754 5753 5753 5752 5752 5751 5750 5750 5749 5747 5746 5745 5744 5742 5741 5739 5738 5736 5735 5733 5731 5728 5725 5722 5719 5716 5713 5710
5737 5739 5741 5742 5743 5744 5745 5746 5746 5746 5747 5747 5747 5747 5747 5746 5745 5744 5744 5743 5742 5741 5740 5739 5738 5737 5735 5734 5732 5731 5729 5727 5725 5723 5722 5720 5717 5714 5711 5707 5704 5701 5698